No.FOSSQuestion TitleDateViewsVotesAnswersUser
ScilabQuery regarding XCOS Super_f block2019-01-24 24/01/19300vamsi7862
Scilabpolar graph : invisible axis2019-01-17 17/01/19900Bilaz38
eSimSISO Experiment2019-01-15 15/01/191801priyach...
Affordable-LaptopAugmenting memory2019-01-15 15/01/191801Manoj
eSimError in simulating the circuit12019-01-14 14/01/191601priyach...
eSimError in simulating the circuit2019-01-11 11/01/193201priyach...
DWSIMIssues related to DWSIM in mac2019-01-08 08/01/192702viggi08
eSimsimulation error2019-01-07 07/01/194605priyach...
Affordable-LaptopReminna Remote connection in Debian Thinbook and RDP connection from Windows PC2019-01-05 05/01/192902mahesh464
ScilabAbout Xcos project2019-01-02 02/01/194301CBChoud...
ScilabBook proposal2019-01-02 02/01/194201CBChoud...
Scilab'syms' function2018-12-29 29/12/184001Akhtar
PythonQuiz-6 -- Unable to continue2018-12-28 28/12/183801Bhaghyesh
PythonPractice data structures_exercise_question_82018-12-26 26/12/184801Bhaghyesh
DWSIMupload user define compound2018-12-23 23/12/185501mehul09
ScilabEquivalent function for heaviside in scilab2018-12-20 20/12/185502Akhtar
DWSIMDWSIM Wastewater treatment process2018-12-20 20/12/186001Shubhas...
ScilabI sent a book proposal some days before . I made mistakes in proposal .I want...2018-12-18 18/12/185701CBChoud...
Affordable-Laptopnetwork connectivity2018-12-18 18/12/185111rucha
Image Processing Toolboximage processing functions are not responding2018-12-18 18/12/185300Yogin
OpenFOAMChoosing exact boundary conditions2018-12-18 18/12/184301razon13...
ScilabGet state vectors of state space block during simulation2018-12-17 17/12/184903alexandru
OpenFOAMRegarding Proposal2018-12-17 17/12/184101chetant...
OpenFOAMQuery regarding heat flux boundary condition in OpenFOAM2018-12-16 16/12/183401gikkutom
Affordable-LaptopUnable to connect laptop with smart tv2018-12-15 15/12/186603SadasivamM
Affordable-LaptopMalfunctioning of the laptop2018-12-15 15/12/185701Priya_s...
OpenFOAMHeat flux boundary condition in OpenFOAM2018-12-15 15/12/184401gikkutom
Affordable-Laptopkdenlive app image was working fine - now freeze in timeline, position marker...2018-12-10 10/12/185601ranipv
eSimReverse Characteristics of Diode2018-12-08 08/12/185701Gloria
eSimCurrent source in eSim2018-12-08 08/12/186001Gloria
Affordable-LaptopVLC MEDIA PLAYER2018-12-07 07/12/186701GSMahap...
Affordable-LaptopUninstallation2018-12-07 07/12/185611GSMahap...
eSimInstallation of eSim software2018-12-06 06/12/188202SAI14
Affordable-Laptopmissing qt and wxt terminals from gnuplot 5.2.52018-12-06 06/12/189306ranipv
DWSIMProblem with "Valve"2018-12-05 05/12/188803ferbg
ScilabProcessor in Loop, Hardware in Loop etc.2018-12-04 04/12/187601dalaylama
DWSIMfind the enthalpy in python script2018-12-04 04/12/186501mehul09
Affordable-LaptopIssue with offline update 32018-11-28 28/11/189801manojku...
eSimSoftware download2018-11-28 28/11/189701sweety
Affordable-LaptopError occured while updating the System2018-11-27 27/11/187301Jitendr...
Affordable-LaptopEven after installing updates 2 and 3 the issue persist2018-11-26 26/11/187901Jothi
Affordable-LaptopISO file of OS(Debian)2018-11-26 26/11/1810501Jitendr...
eSimUnable to find esim installer2018-11-26 26/11/188601Prakash14
Affordable-LaptopDisk space (won't let me post unless title is longer than 12 characters, henc...2018-11-25 25/11/1817301Manoj
Affordable-LaptopLED above F3 key2018-11-24 24/11/188902Manoj
ScilabHow to use the oscilloscope?2018-11-23 23/11/188901Batmano
DWSIMRigourous Distillation column error with image file2018-11-21 21/11/188001DoshiVarun
Affordable-LaptopNo LAN Port to the device. How can I use LAN wired connections to this Machin...2018-11-21 21/11/189703balupp
Affordable-Laptopunable todetect sd card2018-11-15 15/11/1810201peeyush...
Affordable-LaptopProblem with Voice Record2018-11-15 15/11/1810801laxman-cs
Affordable-LaptopRegarding Devanagari Typing2018-11-15 15/11/1810210Vikram
Affordable-LaptopProblem with WiFi connection2018-11-15 15/11/1814401Vikram
Affordable-LaptopWEBCAM app: Videos inaccessible2018-11-15 15/11/187701sumedha...
Affordable-LaptopInaccessible Hard disk2018-11-15 15/11/187901sumedha...
Affordable-LaptopBattery Drainage2018-11-12 12/11/1810101Kishan
OpenFOAMBoundary condition at inlet2018-11-11 11/11/1811002sourav0921
Affordable-LaptopTo update Windows 10 software version in Linux OS (Thinbook)2018-11-04 04/11/1819501christo...
Affordable-LaptopCan not play vedio2018-11-03 03/11/1815011Dr_kalpana
DWSIMerror in a kinetic reaction2018-11-01 01/11/1813701mehul09
Scilabwave synthesis analysis using laplace transform2018-10-31 31/10/1810301priyada...
Affordable-LaptopAffordable laptop with Hard disk2018-10-31 31/10/1823713dadas
Affordable-LaptopUBS Port not functioning2018-10-31 31/10/1810811sharma49
Affordable-LaptopNo stereo sound2018-10-31 31/10/1811811b4balu
ScilabMoving average2018-10-26 26/10/189401Noiser1234
Affordable-LaptopSound not working!2018-10-26 26/10/1814211mohamed.ld
Scilabcsim message "Excessive work done on this call"2018-10-26 26/10/1814701felipet...
ScilabData import from clipboard2018-10-25 25/10/18212502Noiser1234
ScilabString Handling in Scilab Xcos V5.5.22018-10-17 17/10/1812901Poornac...
ScilabDifferent tasks PLEASE HELP2018-10-14 14/10/1812901joosep
eSimpcbnew layout straight to ngspice?2018-10-08 08/10/1817801coupsde...
DWSIMerror in LLE ternary graph utility2018-10-08 08/10/1813602mehul09
Scilabscetoexe not working2018-10-05 05/10/1814200anupam
eSimNot able to open examples in esim, its showing " The system cannot find the s...2018-10-01 01/10/1813101nsnairtvm
eSimUnable to proceed with Setup program2018-09-30 30/09/1811701ksmk31
OpenFOAMFoam::error::printStack(Foam::Ostream&) at ??:?2018-09-27 27/09/1813201razon13...
OpenFOAMContinuity error cannot be removed by adjusting the outflow.2018-09-19 19/09/1821101razon13...
ScilabVoronoi Diagrams2018-09-17 17/09/1813201ritu_2306
DWSIMdoubt regarding reaction furnace and condenser2018-09-15 15/09/1813701rajat
Pythonlinspace is not found . i have window 32 bit. plz help me out .2018-09-15 15/09/1810801sushma
ScilabWhat is algebraic Loop? When it Occurs in Xcos? How to Overcome it?2018-08-31 31/08/1825901arundso...
ScilabRegarding Scilab commands xcorr2018-08-29 29/08/1815701Ajay
DWSIMError in stichiometry2018-08-24 24/08/1817403drmanka...
DWSIMSimulation of process model for n number of data points or observations2018-08-24 24/08/1817101drmanka...
DWSIMDevelopment of graphical user interface in Excel2018-08-24 24/08/1816501drmanka...
eSimwhile opening the schematic window this error occur?2018-08-13 13/08/1821901duraira...
ScilabSet logarithmic scale in Sgrayplot2018-08-02 02/08/1818700Matias
DWSIMabout flowsheet submission2018-07-29 29/07/1824501mehul09
PythonThe circulate.zip error2018-07-27 27/07/1817801prateek...
FOSSEE LaptopFOSSEE OS linke is down2018-07-23 23/07/1817801mrf3
DWSIMabout a scrubber design2018-07-22 22/07/1822001mehul09
DWSIMPipe unit operation2018-07-14 14/07/1821401Rick63
OpenFOAMConvergence in Open Foam Simulation2018-07-13 13/07/1818901ben
DWSIMAbout internship's forms2018-07-05 05/07/1822011mehul09
OpenFOAMSalome bentpipe to OpenFOAM2018-07-02 02/07/1820601Happys5
SBHSWhat is Error while running the Python based "run" file ?2018-06-29 29/06/1821001Moh005
PythonRegarding quiz 62018-06-27 27/06/1815901Akash_1998
Scilaba general forum question2018-06-25 25/06/1860501maxcy
Scilabfunction return2018-06-25 25/06/1821505maxcy
ScilabSciLab 6.0.1 and Symbolic Toolbox2018-06-25 25/06/1841602kamienn...
DWSIMSimulating a condensor2018-06-24 24/06/1824301Aftab
Scilabtutorial 15 not working2018-06-23 23/06/1824500maxcy
ScilabDouble integration by Scilab2018-06-21 21/06/1828700gu08134...
DWSIMPython Documentation For DWSIM2018-06-21 21/06/1822701ParaK
ScilabFFT processing block in XCOS2018-06-21 21/06/1829201shriniv...
DWSIMBubble Column Reactor Substitute2018-06-20 20/06/1822601ParaK
ScilabGet all the file name of a directory in a list2018-06-19 19/06/1818501sarahi
Scilabdebugger acting screwy2018-06-19 19/06/1818800maxcy
ScilabI am finding it difficult to interpret this graph2018-06-18 18/06/1820300chandra...
Scilabmore debugger questions2018-06-18 18/06/1821201maxcy
ScilabTemperature Distribution in a Square2018-06-17 17/06/1821400Karthik
Scilabprint Question2018-06-17 17/06/1819201maxcy
ScilabGaussian Elimination Tutorial again2018-06-17 17/06/1819700maxcy
Scilabposting question from the tutorial link doesn't work2018-06-17 17/06/1821001maxcy
Scilabdebugging a tutorial example2018-06-17 17/06/1828502maxcy
ScilabImplement a Scilab Program for Temperature of a Radioactive rod2018-06-16 16/06/1820000Karthik
Scilabplotting a deff2018-06-16 16/06/1818101maxcy
Scilabhow to check if a random process in wss in scilab2018-06-16 16/06/1818301chandra...
Scilabdebugging SciLab examples2018-06-15 15/06/1821801maxcy
Scilabdeveloping in SciLab2018-06-15 15/06/1818001maxcy
ScilabGaussian Elimination Tutorial2018-06-14 14/06/1826600maxcy
Scilabscilab posting question2018-06-14 14/06/1823001maxcy
Scilabspoken_tutorial site2018-06-11 11/06/1819301maxcy
ScilabMAC, can´t write to a file2018-06-10 10/06/1821300ot
eSimquestion and answer list out of date?2018-06-07 07/06/1819701johnCro...
ScilabScilab - Ballistic problem2018-06-05 05/06/1821800Yetem
eSimwhen I download eSim installer for windows Norton secrity rejects it2018-06-04 04/06/1821301johnCro...
DWSIMCompound not available2018-06-01 01/06/1821001Hemanand
DWSIMhelp about vinyl chloride2018-05-28 28/05/1819201M_A_P
DWSIMCrude Desalter Simulator2018-05-27 27/05/1821901vbs305
DWSIMseparator column in compound separater2018-05-26 26/05/1817801bheemesh
DWSIMfixing the output data for a given problem2018-05-26 26/05/1819401bheemesh
Signal Processing ToolboxChecking stationarity of a random process2018-05-26 26/05/1815500chandra...
ScilabUnable to install FOSSEE Optimisation toolbox2018-05-25 25/05/1826501arian
ScilabHow to find inverse laplace transform in scilab2018-05-24 24/05/1839000chandra...
PythonError in print statement2018-05-22 22/05/1817601manavsa...
Scilabscale of axes2018-05-22 22/05/1817701RudiLehn
DWSIMConversion reactor2018-05-22 22/05/1824504srwasan
DWSIMUNIQUAC package with default flash doesnot converge.2018-05-18 18/05/1825803teja9006
OpenFOAMUsing multiInteraction type patchInteractionModel2018-05-16 16/05/1822001surajiitk
eSimlooking for a VCO component2018-05-15 15/05/1821401cuichi
ScilabScilab-Isosurfaces2018-05-03 03/05/1821100lacastelos
ScilabHelp Scilab Isosurfaces2018-05-03 03/05/1818900lacastelos
ScilabIsosurfaces Scilab2018-05-03 03/05/1820900lacastelos
ScilabIsosurfaces - Help Scilab2018-05-03 03/05/1821400lacastelos
ScilabHow to do range filter of image??2018-05-02 02/05/1824300anil_mca4
ScilabHow do I retrieve a file from scilab that seems like it has been deleted?2018-04-28 28/04/1821401frida
ScilabError installing symbolic toolbox2018-04-25 25/04/1825300dhruvpa...
DWSIMBrine evaporation in DWSIM2018-04-21 21/04/1830601nagaraj...
PythonRegarding review of given question2018-04-18 18/04/1822201darpitk...
Scilabvery poor .pdf file2018-04-11 11/04/1823103maxcy
Scilabcompile and run is screwed up2018-04-11 11/04/1823802maxcy
eSimproblem with the analysis tab2018-04-06 06/04/1819601nivedita
ScilabMux/Demux vs Bus 22018-04-05 05/04/1820900Antonio
ScilabMux/Demux vs Bus2018-04-05 05/04/1825500Antonio
Pythonregarding task submision2018-04-04 04/04/1825702saitejm...
DWSIMRegarding adding compuonds in DWSIM2018-04-04 04/04/1848101Priyam_...
DWSIMAbout unit operations in DWSIM2018-04-03 03/04/1832401Parth
OsdagOSDAG installation problem2018-04-02 02/04/1825301Yallama...
Pythonhow to download certficate2018-03-31 31/03/1828501dharmesh7
eSimYour schematic contain unknown model lm317at2018-03-31 31/03/1827901sainath...
Pythoncan miss any quiz generate problem in issue the certificate2018-03-30 30/03/1822601Abhi9839
ScilabCPGE MODULE Bode parms2018-03-30 30/03/1825401AVISHVAk
Pythoncan't attempt the quiz 52018-03-30 30/03/1821401Bhargavi
Pythoncan't attempt the quiz 62018-03-30 30/03/1820601Tulasi
eSimError while plotting python plot editor. How do i rectify it?2018-03-29 29/03/1827801Sushmitha
eSimAbout Kicad library2018-03-29 29/03/1824201PoonamC...
Pythonmistakenly opened the quiz 12018-03-29 29/03/1821501dharmesh7
PythonQuize3 ragarding assignment submission #2018-03-28 28/03/1821201tejesh002
eSimkey error in source2018-03-28 28/03/1824401kavyada...
Osdagosdag is not opening2018-03-27 27/03/1825501sohilreddy
OsdagError while installation2018-03-26 26/03/1826301mokaeswar
PythonError in downloading certicate2018-03-25 25/03/1826401chetan_g
eSimHow to load components library2018-03-24 24/03/1826001ArshadR...
eSimError while opening python plotting Editor. Please look at console for more d...2018-03-23 23/03/1829202Sravani...
Scilabhow to identify exe file in Scilab2018-03-23 23/03/1827302padmavati
Signal Processing ToolboxOctave Interface Toolbox not installing (FOSSEE 2018 Fellowship)2018-03-23 23/03/1823401a_Xiu
eSimShows that schematic contains unknown model2018-03-23 23/03/1823301VSKhama...
Osdagexample.osi file not opening2018-03-22 22/03/1825401Subrata...
OsdagLAUNCHING OSDAG2018-03-22 22/03/1833702Hoshil_...
eSimERROR: Your schematic contain unknown model jfet_n_pspice2018-03-22 22/03/1825602Sravani...
DWSIMCATALYST is not present2018-03-22 22/03/1830602e.santosh
eSimabout coding2018-03-21 21/03/1823901PoonamC...
eSimWhy esim software is closing after few seconds after installing it2018-03-20 20/03/1824801ArshadR...
OsdagThis is a Test Question for OSDAG2018-03-19 19/03/1826301user100
PythonDoes The yaksh course BPPY is availble Through out the year?2018-03-19 19/03/1852101dave
eSimerror while opening python plotting editor2018-03-19 19/03/1824601Mayankb23
ScilabScilab 2C toolbox2018-03-19 19/03/1830901Akhil
eSimComponents missing in " Choose Component "2018-03-19 19/03/1826501Mayankb23
Scilabwhat is this toolbox2018-03-18 18/03/1824901maxcy
Scilabwindows version of scimax2018-03-18 18/03/1827301maxcy
Scilabcompiling from scilab2018-03-18 18/03/1830002maxcy
eSimUnable to load all the components in the respective libraries2018-03-18 18/03/1824901Sravani...
Python'linspace' not defined in canopy editor2018-03-17 17/03/18100801ankurrj5xe
Signal Processing ToolboxError while installing ocatave interface toolbox, required for DSP toolbox2018-03-17 17/03/1824201iakashp
eSimUnable to create a project2018-03-17 17/03/1843201Sravani...
eSimError in project creation2018-03-17 17/03/1826301Udit
eSimerror while opening a schematic2018-03-16 16/03/1825501vaishna...
eSimesim source i am not able to access2018-03-16 16/03/1826301ELDHO_SOY
eSimerror with source detail2018-03-16 16/03/1825001shubhpriya
OpenModelicaThis is a Test Question2018-03-16 16/03/1821801user100
Pythoni have a list assume 10 data in the list. If i want to remove number 3 to 8 d...2018-03-16 16/03/1821901jitendra
Scilabcall_scilab help file questions2018-03-16 16/03/1826000maxcy
Osdagosdag software not opening2018-03-15 15/03/1845901Subrata...
ScilabDesign of fir filters using windowing technique2018-03-14 14/03/1833700chandra...
PythonWhere can I find the data files and images required for the course?2018-03-13 13/03/1835101anuragr
eSimua741 pin details2018-03-13 13/03/1824102ashish
eSimAll the components are not downloaded.2018-03-12 12/03/1823601gaytrip...
PythonWhere can i found Python course?2018-03-12 12/03/1826601marmikp...
eSimerror: dos not contain any kicad netlist file for conversion2018-03-12 12/03/1832001shubhpriya
Scilabscilab and linux2018-03-11 11/03/1831001maxcy
Pythonimport error2018-03-11 11/03/1822901tharuna...
Signal Processing Toolboxlinux and Scilab2018-03-10 10/03/1830101maxcy
PythonInterface to submit questions.2018-03-09 09/03/1837101shubhan...
ScilabScilab Symbolic Toolbox2018-03-09 09/03/1872402maxcy
Scilabatoms toolbox and syms2018-03-08 08/03/1832200maxcy
OpenFOAMWhy Initial residual is not equal to the final residual obtained from the pre...2018-03-07 07/03/1841401ankur_garg
eSimcannot open project2018-03-07 07/03/1834703agrahara
eSimissue regarding number of ports2018-03-05 05/03/1825501anudeep...
ScilabConvolutional Neural Network2018-03-05 05/03/1827701advait
Scilabis the cloud working2018-03-05 05/03/1825501maxcy
Scilabevans code example not working2018-03-05 05/03/1832901maxcy
eSimPython plotting missing2018-03-04 04/03/1825001sounnda...
Scilabwhat is syms and how does it affect the code2018-03-04 04/03/1860302maxcy
Scilabsgrid from definition example2018-03-03 03/03/1825001maxcy
eSimNot able to start up the schematics.2018-03-03 03/03/1830801bunty.him
Scilabrerunning cloud code2018-03-03 03/03/1825201maxcy
Scilaba warning message2018-03-03 03/03/1825401maxcy
Scilabimporting .sce file2018-03-03 03/03/1827902maxcy
eSimCannot find 'eSim_' files in the components library2018-03-02 02/03/1827001rishabh...
Scilabwhy do we plot digital filter spectrum on 0 - 0.5 only2018-03-02 02/03/1824601chandra...
Scilabxgrid() is a no show2018-03-02 02/03/1830202maxcy
Scilabcopying code doesn't wotk2018-03-01 01/03/1827302maxcy
ScilabConvolutional Neural Network using the Caffe model2018-03-01 01/03/1827000advait
eSimsimulation problem in cmos inverter2018-03-01 01/03/1826202ajinkya...
eSimCan't seem to create a new project2018-03-01 01/03/1833802rishabh...
Scilabcsim coding question2018-03-01 01/03/1823801maxcy
Scilabcloud book examples not working2018-02-28 28/02/1827501maxcy
Scilabroot locus code from scilab book2018-02-28 28/02/1853202maxcy
Scilabposting questions2018-02-28 28/02/1825900maxcy
Pythoncanopy not available2018-02-28 28/02/1823001HarishS...
Scilabroot locus problem2018-02-28 28/02/1827404maxcy
Scilabroot locus example problem2018-02-28 28/02/1825201maxcy
Scilabevans example problem2018-02-28 28/02/1823701maxcy
Scilabevans example problem2018-02-28 28/02/1825801maxcy
Scilabevans example problem2018-02-28 28/02/1826001maxcy
DWSIMDehydration Plant Simulation2018-02-27 27/02/1830902Haaresh...
ScilabReview duration2018-02-27 27/02/1824601dhruvpa...
eSimSquare wave in eSim2018-02-27 27/02/1825302ajinkya...
Scilabmatrix operator2018-02-24 24/02/1827804maxcy
eSimNon available componant2018-02-24 24/02/1824301jrangar...
Scilabcode syntax question from example code2018-02-23 23/02/1824902maxcy
FOSSEE LaptopDIFFICULTY IN INSTALLING AND RUNNING OPTIMIZATION TOOL BOX2018-02-23 23/02/1822201varadar...
ScilabAlternate instruction in scilab for filtic in matlab2018-02-23 23/02/1836401Raji
Scilabcode syntax question2018-02-22 22/02/1825702maxcy
ScilabMatlab equivalent2018-02-21 21/02/1834103maxcy
eSimUNKNOWN MODEL-lm555n2018-02-20 20/02/1827001shekhar
DWSIMDehydration Plant2018-02-19 19/02/1832901Haaresh...
ScilabCan anyone help me figure out how to work with microdaq2018-02-16 16/02/1830501chandra...
eSimtransient analysis2018-02-16 16/02/1832002sounnda...
Scilabsetup GUI home page2018-02-16 16/02/1829202maxcy
Optimization ToolboxFOSSEE optimization toolbox does not load under Scilab 5.5.2/Windows 72018-02-12 12/02/1825502mottelet
Scilab-Arduinonot able to open the icon2018-02-10 10/02/1830902nilashri
Scilabregarding XCOS2018-02-10 10/02/1829602nilashri
eSimPython plot error-reg2018-02-05 05/02/1831702Jeevash...
eSimWaveform generation2018-02-05 05/02/1829701KarthikaK
eSimvcc supply-reg2018-02-04 04/02/1828701Jeevash...
DWSIMProble with opening DWSIM file into software2018-02-02 02/02/1837001sbdongare
eSimno python plot2018-01-26 26/01/1829901sounnda...
DWSIMKinetic reaction2018-01-21 21/01/1832601Divyans...
eSimcommand not found2018-01-14 14/01/1843201sounnda...
DWSIMRigorous Distillation2018-01-12 12/01/1838201Divyans...
DWSIMPFR step size error2018-01-11 11/01/1832501Rutuaj24
eSimhow to open a new project?2018-01-10 10/01/1838501VENKATT...
eSimPython Plot error2018-01-07 07/01/1834701shefali04
ScilabWorking with scilab (DSP Lab) and Texas instruments dsp processor2018-01-05 05/01/1889402chandra...
eSimWhat exactly eSim is?2018-01-04 04/01/1826602siddhes...
FOSSEE Laptopliblapack.so.3gf2018-01-03 03/01/1836101ulima
DWSIMDisplaying reaction results2017-12-31 31/12/1734701Divyans...
eSimHow to give inputs to the IC's2017-12-28 28/12/1734101A.Karthik
eSimHow to set a Path?2017-12-27 27/12/1729601VENKATT...
eSimHow to work with This Software in Laptop?2017-12-27 27/12/1732003VENKATT...
ScilabProblem with visualisatioin of output of chebyshev type one filter.2017-12-24 24/12/1731301chandra...
DWSIMcan you suggest me the solution for the error I'm getting while designing met...2017-12-22 22/12/1733701Harshali
Scilabinput function is behaving in a inconsist function2017-12-20 20/12/17131001chandra...
eSimunable to give title of the project.2017-12-20 20/12/1734102A.Karthik
ScilabProblem with input command in scilab for reading mulitiple data2017-12-20 20/12/1732101chandra...
Scilab2d graph. Powers of a variable.2017-12-16 16/12/1727511Abbas
ScilabProblem with design of iir lpf filter.2017-12-15 15/12/1727901chandra...
eSimpython plotting error and global label error2017-12-15 15/12/1745801Vignesh
eSimesim installation problem2017-12-13 13/12/1774818shekhar
eSimgraphical error2017-12-12 12/12/1726602sounnda...
eSimunable to use eSim sources2017-12-09 09/12/1751302amolbed...
ScilabProblem in visualistion of the output2017-12-09 09/12/1729401chandra...
ScilabProblem installing Scilab 6.0 on ubuntu 16.04 LTS2017-12-06 06/12/1747201chandra...
ScilabSteps to install scimax toolbox on Scilab2017-12-06 06/12/1738101sudip.26
eSimconversion error, unknown component2017-12-02 02/12/1735203sounnda...
ScilabFIR Filter design2017-12-01 01/12/1728801Akhtar
ScilabProblem finding the DFT of the sequence as the length of sequence increases2017-11-30 30/11/1767301chandra...
OpenFOAMLooking for Solver for Three Phase Heat Transfer with phase change for Cryoge...2017-11-29 29/11/1732401arezes
ScilabN point FFT calculation2017-11-28 28/11/1736001chandra...
OpenFOAMResource persons for OPENFOAM Software.2017-11-22 22/11/1729801thprasads
eSimProblem in opening the schematic window after double clicking the esim icon.2017-11-15 15/11/1741014kksunda...
Scilabproblem matrix dimension2017-11-13 13/11/1730101Timmy
ScilabThe Weierstrass-Mandelbrot curve2017-11-12 12/11/1737101Deniro
eSimsteps to do after getting an approved mail2017-11-11 11/11/1728701AKSHAYA
eSimerror while using thyristor.2017-11-09 09/11/1743602sheena
eSimCircuit Rules check error in Gnd2017-11-07 07/11/1730201Gokul
eSimfinding input signal2017-11-06 06/11/1731301sounnda...
eSimerror in ERC2017-11-06 06/11/1740307sounnda...
ScilabWeiner kinchin relation code2017-11-06 06/11/1736301chandra...
eSim'plot_data_i.txt' and 'plot_data_v.txt' files cannot be created. why is this ...2017-11-04 04/11/1737403sheena
eSimerror while simulating the schematic.2017-11-02 02/11/1740302sheena
DWSIMDWSIM for membrane separation2017-10-30 30/10/1749301faya
OpenModelicaModelling a Spark Plug for simulation project.2017-10-30 30/10/1730401Leong
eSimabstract submission2017-10-28 28/10/1730101Karthik...
eSimCIRCUIT SIMULATION PROPOSAL FORM SUBMIT ERROR2017-10-24 24/10/1735102CHETAN1994
eSimlast date for circuit simulation2017-10-23 23/10/1732501sounnda...
eSimComponents not Available2017-10-20 20/10/1730301dharm_007
eSimhow to simulate 555 timer based astable multivibrator with esim?2017-10-19 19/10/1745001anil
eSimLaunching esim on my pc.2017-10-18 18/10/1731705Telegenic
eSimproiect name error2017-10-18 18/10/1733301Abhilas...
Signal Processing ToolboxA Missing Block (OTA) in Xcos tool box2017-10-16 16/10/1730801Narayan...
System Identification ToolboxIs a PHARMACY background STUDENT can develop a TCB2017-10-13 13/10/1727111prashan...
ScilabHOW TO USE SCILAB FOR PHARMACY EDUCATION REGARDING ACTION AND REACTION OF CHE...2017-10-13 13/10/1733601prashan...
PythonIs a computer background student can develop a TCB2017-10-13 13/10/1741801Anjusiva
eSimproposal form2017-10-11 11/10/1732701sjitm
eSimwhere can i find a 3-phase ac source.2017-10-10 10/10/1733901Abhinay123
eSimProposal Form for circuit simulation project.2017-10-09 09/10/1736501Abhinay123
DWSIMDownloading the Tutorials2017-10-03 03/10/1739101akash.s...
DWSIMIssue in DWSIM Software Installation2017-10-02 02/10/1748501akash.s...
ScilabGlitch in Scilab version 62017-09-17 17/09/1739101prnaren
DWSIMThree phase open-source library2017-09-13 13/09/1738601simon
DWSIMThree phase library open-source2017-09-13 13/09/1741101simon
DWSIMcan we use DWSIM for simulutions for a spray or rotay drier systems2017-09-07 07/09/1742201bhagath...
OpenFOAMdiffusivity directional variables2017-08-30 30/08/1740401ashok
ScilabStand alone exe. from Scilab 6.0.02017-08-24 24/08/1751101antony
Optimization ToolboxInstallation problem2017-08-19 19/08/1738901SRS24
ScilabInverted graph2017-08-19 19/08/1737101rajeshbm
Pythonunable to install canopy2017-08-18 18/08/1742701ulfa
ScilabCommands: syms, laplace, ilaplace2017-08-15 15/08/17122801ojumut
DWSIMinternship details2017-08-14 14/08/1740101goyalakash
OpenFOAMchange of volume inside pipe2017-08-11 11/08/1746103ashok
Scilabinput problem2017-08-11 11/08/1794601jsant100
DWSIMRegarding Submission of flow sheet and its deadline.2017-08-07 07/08/1742001miral
eSimhai friends caan any one resolve the problem attached in images?2017-08-05 05/08/1733401mahesh
ScilabIncorrect polynomial operations?2017-08-04 04/08/1737801leohpaz
ScilabCan't convert old diagram (problem in version) while using To Workspace (xcos)2017-08-02 02/08/1742001leohpaz
OpenFOAMOpenFOAM Issue with Porous Media and Buoyancy2017-08-02 02/08/1750901rudhkul
Optimization Toolboxexample problem required for understanding.2017-07-31 31/07/1739001ravinde...
DWSIMAssigning operating pressure for distillation column2017-07-27 27/07/1745901mbali20
ScilabParticleLabeling with IPCV toolbox command imlabel2017-07-26 26/07/1738401Hackmet
ScilabQuery regarding submission of code2017-07-20 20/07/1736701amitkum...
ScilabIs it possible convert a PSPICE code to scilab code?2017-07-17 17/07/1740301amitkum...
OpenFOAMvertical loading in interfoam2017-07-11 11/07/1740201hsai1991
OpenFOAMConvergence while using icoFoam2017-07-06 06/07/1747401ankur_garg
eSimUnable to load footprints while opening CvPcb2017-07-05 05/07/1773502HARISHBHAT
eSimUnable to map footprints2017-07-04 04/07/1744402HARISHBHAT
OpenFOAMSimulation Of Flow over cylinder with forward splitter plate2017-07-03 03/07/1743101maheshtom
ScilabImage in GUI2017-07-03 03/07/1744601jayati
eSimUNABLE TO INSTALL IN UBUNTU16.04 LTS2017-06-28 28/06/1733901mahesh
ScilabLab Migration Proposal2017-06-19 19/06/1738801dimple
ScilabProblem with xls_link Scilab tool2017-06-16 16/06/1738301MrWhite10
eSimCan't install eSim 1.1.2 on Ubuntu 162017-06-12 12/06/1744703pldissa...
OpenFOAMOpenFOAM-1.6.x Installation Error2017-06-07 07/06/1747001Samarendra
Scilabhttps://help.scilab.org/ not working2017-06-06 06/06/1759402rampras...
ScilabDubugging in Scilab2017-06-06 06/06/1744602rampras...
SBHSError while running program2017-06-01 01/06/1743801lalitch...
ScilabImage processing performance2017-05-31 31/05/1743702Hackmet
Pythonhow to join the course2017-05-27 27/05/1748301anjU
Computer Vision ToolboxBlob Detection and Analysis2017-05-22 22/05/1740502teju5531
ScilabScilab problem2017-05-22 22/05/1744101skitlesas
ScilabScilab task problem2017-05-22 22/05/1742601skitlesas
ScilabNeed help with scilab task2017-05-21 21/05/1739101skitlesas
eSimeSim ibraries missing2017-05-20 20/05/1738301Franky
OpenFOAMDynamic Moving Mesh2017-05-20 20/05/1743401Samarendra
OpenFOAMHow to Create Baffles in Geometry2017-05-17 17/05/171286-11ankur_garg
Scilabscilab version 6 related problem2017-05-17 17/05/1745501ruchisingh
eSimPassing option to ngspice2017-05-15 15/05/1741302buleks
DWSIMstep size becomes too small error in plug flow reactor2017-05-14 14/05/1756601Nikhil
DWSIMdouble clicking not opening main editing window2017-05-12 12/05/1740001Nikhil
Scilab"Abort" command in Scilab 6.0.02017-05-08 08/05/1782502Hackmet
Scilabimage processing error in scilab2017-05-05 05/05/1743001gowtham...
ScilabSample source file in book proposal form2017-05-05 05/05/1740101amitkum...
ScilabError while opening scilab.2017-05-03 03/05/1769601gowtham...
Scilabproblem with the opening environment window.2017-05-01 01/05/1748602GVP
DWSIMMulti component Distillation2017-04-25 25/04/1779101RajatSu...
OpenFOAMHow to create a internal gate?2017-04-25 25/04/1766901hsai1991
OpenFOAMCannot find flow at bottom surface_slump test2017-04-25 25/04/1748004ashok
OpenFOAMplotting at a definite point2017-04-14 14/04/1757301SUBHANKAR
OpenFOAMgetting time-average flow fields within certain time interval2017-04-09 09/04/1776901SUBHANKAR
OpenModelicaHOW TO APPROACH MULTIBODY SYSTEM IN OPEN MODELICA2017-04-07 07/04/1741002DURAISAMY
ScilabQuestion for plotting 2D2017-04-05 05/04/17114603chanyau...
OpenFOAMplotting skin friction coefficient2017-04-03 03/04/17130701SUBHANKAR
OpenFOAMlaminar separation bubble2017-04-02 02/04/1744001SUBHANKAR
OpenFOAMSnappyHexMesh Tutorial2017-04-01 01/04/1763601ankur_garg
Scilabxcos - rfile_f - input format2017-03-31 31/03/1778401ebike_dev
ScilabHow to define variable for a matrix?2017-03-29 29/03/1740501emerson...
OpenFOAMpressure plot in paraFoam2017-03-27 27/03/1783801SUBHANKAR
eSimError trying to create schematic (Ubuntu running under Win10)2017-03-24 24/03/1780606lreni
eSimngspice not running in eSim2017-03-22 22/03/1755904RG190564
eSimWarning at starting eSim and error at calling ngspice2017-03-21 21/03/1743001RG190564
DWSIMUnbalanced equation2017-03-19 19/03/1751802nas.fiq
Scilabscilab simulation error 21; Invalid index.2017-03-18 18/03/17121801adiblhf
Scilabsimulation problem2017-03-17 17/03/1748501adiblhf
eSimSOFTWARE IS NOT WORKING2017-03-17 17/03/1751501ajitsingh
OpenFOAMpost-processing in paraview2017-03-10 10/03/1781301SUBHANKAR
DWSIMDWSIM components2017-03-08 08/03/1761302nirbhay...
OpenFOAMHow to find/call each individual cell in a computational domain2017-03-08 08/03/17152003sarojdip
ScilabSimulation of pipe flow2017-03-01 01/03/1752101jasvinder
Image Processing ToolboxImage read and display problem2017-02-24 24/02/1741501ramansa...
eSimQuery Related Esim2017-02-24 24/02/1741601Sunil4u
FOSSEE LaptopTest Question2017-02-23 23/02/1739501test
ScilabVelocity profile2017-02-16 16/02/1741301jasvinder
Signal Processing Toolboxplease specify the complete detailed instruction of installing scilab symboli...2017-02-10 10/02/1743501dhatta
Scilab2D Lookup Table: How to do it??2017-02-07 07/02/1782802Prof.X
ScilabCompile call_scilab in c++ using Eclipse IDE Helios Service Release 22017-02-04 04/02/1750801phamish...
Scilabscilab cloud2017-02-03 03/02/1755703girishl
SBHSMachine ID 62017-02-03 03/02/1739001140020009
ScilabQUESTION IS x(t)=exp(a*t) while a>12017-01-26 26/01/1750611dhatta
OpenFOAMmultiPhaseEulerFoam case running issue..2017-01-17 17/01/1778501sarojdip
OpenFOAMBasic queries regarding cad, mesh and sim2017-01-16 16/01/1747502Rawnap07
ScilabXcos Block Wizard2017-01-16 16/01/1769001Shigeru
DWSIMRECYCLE STREAM2017-01-10 10/01/1797001thubelihle
ScilabHow to load file .dat with true variable name2017-01-07 07/01/17155803dafri
Scilabusage of scilab2016-12-30 30/12/1669401lipikas...
DWSIMSIMULATION inquiry2016-12-29 29/12/1653902thubelihle
Scilabplot crashes using scf under Xubuntu2016-12-28 28/12/1646001sebf
ScilabsciFLT toolbox - Unable to load block from...2016-12-25 25/12/1676401DLakomy
DWSIMHEAT EXCHANGER2016-12-04 04/12/1674901thubelihle
DWSIMOPEN SOURCE APPLICATION2016-12-03 03/12/1656605thubelihle
DWSIMFLASH DRUM SEPARATOR2016-12-03 03/12/1663401thubelihle
ScilabXcos: an equivalent simulink palette2016-12-01 01/12/1658501Naiara
eSimnot getting frequency response2016-11-26 26/11/1644101bibek
eSimnot fetting correct result2016-11-24 24/11/1646501bibek
OpenFOAMpost-processing problem2016-11-23 23/11/1665101SUBHANKAR
eSimNor getting coorrect output for a clamper circuit2016-11-23 23/11/1650401bibek
ScilabIPD BlobStatistics2016-11-22 22/11/1646201AllenMar
ScilabHow to install E4coder in Scilab2016-11-22 22/11/1644801Mohamed
ScilabAdding a non-numerical header for a text file of numerical column values in S...2016-11-21 21/11/1657201Farhan
ScilabCombining two text files to one in Scilab2016-11-21 21/11/1651901Farhan
OpenFOAMproblem in results2016-11-21 21/11/1652502SUBHANKAR
ScilabfscanfMat in GUI (PushButton)2016-11-18 18/11/1656402Hackmet
ScilabfscanfMat via PushButton?2016-11-18 18/11/1649101Hackmet
eSimNot getting the correct Python plot2016-11-18 18/11/1650501bibek
Scilabmaking a circle looking like a circle2016-11-16 16/11/1664402moon61
ScilabHelp required in running a C program in scilab2016-11-16 16/11/1686106Vijay_K...
eSimeSim on BOSS Linux (anoop)2016-11-14 14/11/1649001madhan
ScilabPlotting coordinates2016-11-11 11/11/1645301AllenMar
ScilabRandom binary sequence generator2016-11-10 10/11/1659901ashutumho
ScilabImplementing Matlab function in scilab2016-11-10 10/11/1651301Nisha
ScilabBitBucket Repo2016-11-09 09/11/1644801Anuradha
ScilabCACSD toolbox install2016-11-06 06/11/1653701Survind...
OpenFOAMopenfoam to firefoam throuh paraview?2016-11-01 01/11/16105103frances...
OpenFOAMNo vortex shedding2016-10-31 31/10/1652801SUBHANKAR
ScilabHow to install scilab communication toolbox for Scilab 5.5.12016-10-29 29/10/1654101kavyama...
ScilabHow to draw gear profile.2016-10-26 26/10/1654601Prashant05
OpenFOAMparaview tools2016-10-21 21/10/1657701SUBHANKAR
OpenFOAMerror while running a solver2016-10-13 13/10/16264701SUBHANKAR
OpenFOAMSurfaceTracking2016-10-06 06/10/1661201Arahata
eSimSimulation not working. Error while opening phyton plotting editor2016-09-29 29/09/1650201memobec...
eSimSimulation not working2016-09-29 29/09/1648401memobec...
OpenFOAMboundary condition2016-09-26 26/09/1650101SUBHANKAR
OpenFOAMplotting the residuals2016-08-23 23/08/16107101SUBHANKAR
eSimdc analysis reg2016-08-18 18/08/1646101krishna
OpenFOAMplotting in paraview2016-08-16 16/08/1654302SUBHANKAR
eSimRun setup2016-08-08 08/08/16111701Shubham
eSimDC Analysis _reg2016-08-04 04/08/1672902krishna
OpenFOAMco-efficient of drag and lift2016-08-03 03/08/1671104SUBHANKAR
OpenFOAMopemFoam2016-08-02 02/08/1665202mrinal
Scilabsivp TOOLBOX2016-07-22 22/07/16100906amol_gp
eSimerror while opening python plotting error2016-07-21 21/07/1672201Ramu
OpenFOAMPROBLEM2016-07-21 21/07/1673501SUBHANKAR
Scilabunable to install SIVP2016-07-20 20/07/1680001amish
eSimUnable to install eSim on Ubuntu2016-07-19 19/07/1672401Ramu
eSimInjecting noise2016-07-16 16/07/1674101dangel
eSimexecution error reg2016-07-13 13/07/1665801krishna
ScilabScimax - Scilab Symbolic Toolbox2016-07-12 12/07/16156504gsanchi...
eSimExecution reg2016-07-11 11/07/1666603krishna
eSimregarding Lab migration project2016-07-09 09/07/1668201bjena
ScilabScilab Xcos2016-07-06 06/07/16142601jalpa
ScilabScilab 5.5.2 - Xcos2016-07-06 06/07/16216205jalpa
eSimpython plotting window does not open up (On latest build of eSim)2016-06-26 26/06/1684603kavyama...
eSiminstallation reg2016-06-24 24/06/1673701krishna
OpenFOAMblockmeshdict file2016-06-23 23/06/1670401SUBHANKAR
ScilabSCILAB certification2016-06-22 22/06/1680501miniranis
ScilabSCILAB code for lotka voltera model2016-06-19 19/06/1674301amol_gp
ScilabNumerical Linearization (CACSD tool)2016-06-15 15/06/1676903madhan
OpenFOAMWriting blockMeshDict file2016-06-14 14/06/1671401SUBHANKAR
eSimeSim not working in windows 102016-06-06 06/06/1684201dangel
eSimundetaking form2016-05-31 31/05/1664901bjena
eSimesim training on skype2016-05-31 31/05/1666401bjena
DWSIMNew Compound Creator Study2016-05-26 26/05/16152501akashbt
OpenFOAMobject inspector menu in paraview2016-05-25 25/05/1683001SUBHANKAR
ScilabAnswer format in scilab2016-05-16 16/05/16147701nihalbisen
OpenFOAMTROUBLE IN SIMULATION2016-05-15 15/05/1696002SUBHANKAR
OpenFOAMSimulation of Euler-lagrangian bubble using OpenFOAM2016-05-11 11/05/16123902anirban...
OpenFOAMOPENFOAM IN WINDOWS2016-05-10 10/05/16104101SUBHANKAR
eSimProblem in getting started with eSim2016-05-06 06/05/1686702jebi
ScilabError in graphic plot2016-05-03 03/05/1688001mipeli
DWSIMHow to install and run DWSIM on MAC AIR?2016-04-25 25/04/16103402dprao
ScilabDebug a function plot2016-04-25 25/04/16139104rinkley
OpenFOAMHow to plot a graph in Open foam2016-04-24 24/04/16135801KVK
eSimproblem in creating project2016-04-23 23/04/1672801teny
DWSIMCreating component hypothetically2016-04-22 22/04/16277902krunal
ScilabReading a wav file2016-04-21 21/04/1690302Muralik...
eSimscilab contourf plot axis scaling2016-04-06 06/04/1686601max0924051
Scilabscilab plot contourf2016-03-31 31/03/1693303max0924051
eSimincorect ac simulaton2016-03-29 29/03/16720011mikimo...
eSimeSim Eeschema Diode component problem.2016-03-24 24/03/1689801Winderson
eSimunable to simulate dc power supply2016-03-23 23/03/1673001ankush
eSimImpossibilité de créer un subcircuit.2016-03-22 22/03/1675901jptt
eSimImpossibilité de créer un subcircuit.2016-03-22 22/03/1666103jptt
OpenFOAMError in Turbulence Solver2016-03-18 18/03/16507006KVK
eSimEnable to find AC voltage source2016-03-15 15/03/16217202ankush
Scilabplot sin(x)/x2016-03-14 14/03/16113302RudiLehn
OpenFOAMSimulation error (delta T is decreasing while the iterations are being carrie...2016-03-13 13/03/16407805KVK
FOSSEE LaptopCost and postal charge2016-03-11 11/03/1677701arasu
eSimInstallation error2016-03-10 10/03/1688101alex
Scilabsurf color with OS X2016-03-06 06/03/1672303RudiLehn
eSimTesting Forum Reply2016-03-01 01/03/16815011fahim
eSimUnable to get details of source2016-03-01 01/03/1682705ankush
ScilabVehicle Count2016-02-27 27/02/16100901chinnur010
DWSIMEquilibrium reactor simulation2016-02-26 26/02/16320102Parul_s...
eSimRegarding footprint2016-02-25 25/02/1672303pankaj
Scilabreading dcm images - error2016-02-16 16/02/16101101dr.cs1973
Scilabmpi in scilab2016-02-14 14/02/1680801Vadim
FOSSEE LaptopHindi Typing Layout2016-02-13 13/02/1661002sai
FOSSEE LaptopKiwix - Offline Wikipedia2016-02-11 11/02/1657401sai
DWSIMTextbook companion project2016-02-10 10/02/1684802vignesh...
Scilabdrop2016-02-10 10/02/1678103JeniVenit
Python"syms" not taking help!2016-02-09 09/02/1671401rishabh...
eSimUnable to run the simulation2016-02-09 09/02/1686904balu.ee...
eSimError while opening python plotting Editor.2016-02-05 05/02/1692404yogi
FOSSEE Laptopfeatures of laptop2016-01-29 29/01/1667302janabha...
eSimlab migration programe2016-01-29 29/01/1674501janabha...
ScilabFlood fill Operation in Scilab2016-01-20 20/01/16138701saraths
eSimunable to install e sim on linux2016-01-18 18/01/1677001yogi
eSimunable to install e sim on linux2016-01-18 18/01/1683501yogi
eSimGetting errors when simulating the basic logic gates2016-01-18 18/01/1674101abaruah
eSimSimulation of basic logic gates2016-01-18 18/01/1672901abaruah
eSimSimulation of basic logic gates2016-01-18 18/01/16115103abaruah
eSimError while openinf python plotting Editor2016-01-18 18/01/1688202abaruah
FOSSEE Laptopaudio-video recorded by kazam2016-01-14 14/01/1650002sai
eSimabout istallation on ubuntu2016-01-11 11/01/1673401yesmahi
ScilabHow to make and display calculation Table using scilab.2016-01-11 11/01/16313201taneja
FOSSEE Laptopoffline wikipedia2016-01-09 09/01/1652901sai
ScilabSolution provided in book is wrong2016-01-06 06/01/1688001taneja
ScilabShould answer in book exactly match the one from your code.2016-01-05 05/01/1685202taneja
DWSIMConversion of Reaction2016-01-04 04/01/16111401manikth...
FOSSEE LaptopHow can I get Fossee Laptop2016-01-01 01/01/1655701shridha...
DWSIMUnavailability of compounds in Database2015-12-24 24/12/15154502Y.K.Ara...
DWSIMTEXTBOOK COMPANION INTERNSHIP2015-12-23 23/12/1579401manikth...
ScilabWavelet transform in scilab2015-12-12 12/12/15180902aseemsr
eSimRight pane of footprint editor is empty2015-11-25 25/11/1578701kavyama...
eSimI am unable to Install eSim software.2015-11-25 25/11/1581601balu.ee...
eSimRegarding IN/OUT pin configuration2015-11-06 06/11/1585902upk345
eSimunable to add LM741 subcircuit2015-11-04 04/11/1583702sunitha
eSimConduction of workshop regarding2015-10-31 31/10/1571501boomaee...
Osdagmazhar2015-10-27 27/10/1559202mazhar
eSimunable to open esim source to place sine wave2015-10-25 25/10/1579202muqeeth
eSimEsim Not supported in Windows10-Reg2015-10-24 24/10/1578401srimaky
eSimunable to create project2015-10-24 24/10/151271-12muqeeth
eSimHow to plot voltage Vs current through a diode (Diode chara.)2015-10-23 23/10/15117004kavyama...
eSimProblem regarding current direction.2015-10-21 21/10/1574301samre1234
eSimhow to measure resistance2015-10-21 21/10/1567501samre1234
DWSIMTransient simulations and Stream wise report2015-10-21 21/10/15114201prnaren
eSimMeasurement of resistance in eSim.2015-10-18 18/10/1568601samre1234
eSimTo measure and plot the branch current.2015-10-16 16/10/1577701samre1234
eSimInstallation with Windows2015-10-15 15/10/1594102srinaths
FOSSEE Laptopbrightness decreases after 10-15 seconds2015-10-15 15/10/1554301Deepak
eSimError while opening python plotting editor.2015-10-14 14/10/1586902samre1234
eSimAPR33A32015-10-08 08/10/1574501Swetha
eSimyour schematic contains an unknown component vplot8_12015-09-26 26/09/15125201samre1234
eSimYour schematic contain unknown model tl0722015-09-22 22/09/1592701Ebardie
eSimWIndows installation2015-09-22 22/09/15108503Ebardie
FOSSEE Laptopmouse pad and LAN2015-09-20 20/09/1551401150100063
FOSSEE Laptopunable to download flash player2015-09-15 15/09/1555401Deepak
FOSSEE Laptopmouse pad + keybord2015-09-14 14/09/1551501Jogendra
FOSSEE Laptopregarding password2015-09-14 14/09/1553301150260019
SandhiWhile creating up counter block in python getting following erros at cmake2015-09-08 08/09/1575711Ashwini
SandhiWhile generating up counter block getting following error at cmake2015-09-08 08/09/1556301Ashwini
Sandhisandhi installation error2015-09-03 03/09/1557101Ashwini
Sandhi"Sandhi" installation2015-09-03 03/09/1556401Ashwini
OpenFOAMcharger making sparking like noise2015-08-31 31/08/1571401150020063
SandhiError Message2015-08-31 31/08/1563902Ashwini
FOSSEE Laptopkeyboard2015-08-26 26/08/1564001bittu
FOSSEE LaptopHotspot2015-08-25 25/08/1559502akshayk...
SandhiWay to create block in Python2015-08-24 24/08/1580001Ashwini
FOSSEE LaptopInternet not working through lan cable2015-08-23 23/08/1553802akshayk...
FOSSEE Laptopcamera2015-08-23 23/08/1553901Deepak
SandhiBy default it is taking C++ language.Why not asking for language?2015-08-13 13/08/1560101Ashwini
Sandhiwhile running make command I am getting following error2015-08-06 06/08/1559400Ashwini
Scilab-ArduinoError while executing exec loader.sce2015-08-05 05/08/15108102kinitrupti
Scilab-Arduinocommunication over ethernet instead of usb2015-08-05 05/08/1567601Rajanee...
Scilab-ArduinoWhich macros is being used? .sci or .bin!!!2015-08-05 05/08/1549102Rajanee...
Scilab-Arduinomodification in firmware for pwm freq setup2015-08-05 05/08/1566001Rajanee...
SandhiWhile developing source block in sandhi getting errors:2015-08-05 05/08/1561800Ashwini
Sandhigrep2015-08-04 04/08/1560300Ashwini
Scilab-ArduinoCost of Arduino board with shield2015-08-04 04/08/1556602Siva_J
SandhiI want to implement same block as constatnt block2015-07-28 28/07/1564002Ashwini
Scilab-ArduinoUnable to upload program with Scilab Arduino Toolbox2015-07-26 26/07/1592306Navdeep
SandhiI want to change number of input2015-07-23 23/07/1561201Ashwini
Sandhii have module named as D into that block sub. Now i am going to create anothe...2015-07-23 23/07/1569901Ashwini
FOSSEE Laptophow to enter bios setup2015-07-16 16/07/1565011namitka...
SandhiPorting Sandhi program on website2015-07-16 16/07/1560700anamaykane
FOSSEE LaptopNot able to install Flash Plugin in Firefox on FOSSEE2015-07-15 15/07/1556401namitka...
SandhiScilab code to Sandhi block2015-07-13 13/07/1569503anamaykane
FOSSEE Laptopprinter2015-05-06 06/05/1567526rodneyb...
PythonCheck if a file exists using Python2015-03-27 27/03/1593905test2
FOSSEE LaptopDamped audio through speakers and headphone2015-03-26 26/03/1568211Srikant